Weather in Yablonka

Russia / Astrakhan Oblast     46°13′36″N   48°22′55″E
temp.,
°C
wind,
m/s
gust,
m/s
humid.,
%
clouds,
%
prec.,
mm/h
press.,
hPa
HPBL,
m
5 august, thu
thu501:00+27wsw3335100 0.0 101144
04:00+26wnw2241100 0.0 101115
07:00+28n5104285 0.0 1012386
10:00+35nne772724 0.0 10111222
13:00+38nne64216 0.0 10112185
16:00+39n742018 0.0 10103130
19:00+26sw7762100 1.4 1012145
22:00+25n465760 1.8 101178
6 august, fri
fri601:00+25nne4103755 0.0 1012167
04:00+25nne49345 0.0 1012155
07:00+27nne48324 0.0 1012259
10:00+34ne55210 0.0 10121250
13:00+37ne43170 0.0 10112248
16:00+38e43160 0.0 10092777
19:00+33se56250 0.0 1009499
22:00+26e23420 0.0 101018
7 august, sat
sat701:00+25ne45390 0.0 101070
04:00+25ene412330 0.0 1010231
07:00+27ene613280 0.0 1010412
10:00+35ese89190 0.0 10101257
13:00+38ese88160 0.0 10091652
16:00+37ese88174 0.0 10091350
19:00+33e710210 0.0 1009566
22:00+27ene513350 0.0 1009226
8 august, sun
sun801:00+28e616380 0.0 1009334
04:00+28e51443100 0.0 1009304
07:00+29ese6144860 0.0 1009416
10:00+38se8121918 0.0 1009990
13:00+39se91119100 0.0 10091255
16:00+38se892270 0.0 1009928
19:00+33ese693462 0.0 1009400
22:00+26se356377 0.0 100965
9 august, mon
mon901:00+27ssw334616 0.0 100927
04:00+25s225078 0.0 100911
07:00+29wnw00386 0.0 100932
10:00+37nne32185 0.0 10091100
13:00+41nnw231573 0.0 10082696
16:00+42wsw131771 0.0 10083195
19:00+35s793511 0.0 1009439
22:00+28s376175 0.0 1010126